KORGOLDH4 Weather Reports


time (UTC)temp
F
wind
direction
speed
knots
gust
knots
rain 1hr
in
rain 24hr
in
rain mn
in
humidity
%
barometer
mb
20260508085513 52 0.0 0.0 0.00 0.00 0.00 1 1014.8
20260508084513 53 0.0 0.0 0.00 0.00 0.00 1 1014.8
20260508084013 53 0.0 0.0 0.00 0.00 0.00 1 1014.8
20260508083512 53 0.0 0.0 0.00 0.00 0.00 1 1014.8
20260508083013 53 0.0 0.0 0.00 0.00 0.00 1 1014.7
20260508082512 54 0.0 0.0 0.00 0.00 0.00 1 1014.7
20260508082012 54 0.0 0.0 0.00 0.00 0.00 9 1014.8
20260508081012 54 0.0 0.0 0.00 0.00 0.00 14 1014.7
20260508080512 54 0.0 0.0 0.00 0.00 0.00 10 1014.7
20260508080012 55 0.0 0.0 0.00 0.00 0.00 11 1014.7
20260508074513 56 0.0 0.0 0.00 0.00 0.00 11 1014.8
20260508074012 56 0.0 0.0 0.00 0.00 0.00 9 1014.7
20260508073513 57 0.0 0.0 0.00 0.00 0.00 5 1014.6
20260508073013 57 0.0 0.0 0.00 0.00 0.00 3 1014.6
20260508072513 57 0.0 0.0 0.00 0.00 0.00 5 1014.6
20260508072013 58 0.0 0.0 0.00 0.00 0.00 6 1014.6
20260508071513 58 0.0 0.0 0.00 0.00 0.00 11 1014.6
20260508070512 59 0.0 0.0 0.00 0.00 0.00 9 1014.6
20260508065512 59 0.0 0.0 0.00 0.00 0.00 10 1014.5
20260508065014 59 0.0 0.0 0.00 0.00 0.00 13 1014.5
20260508064512 59 0.0 0.0 0.00 0.00 0.00 14 1014.4
20260508064012 59 0.0 0.0 0.00 0.00 0.00 15 1014.4
20260508063512 60 0.0 0.0 0.00 0.00 0.00 16 1014.3
20260508062013 60 0.0 0.0 0.00 0.00 0.00 21 1014.2
20260508061013 61 0.0 0.0 0.00 0.00 0.00 24 1014.1
20260508060512 61 0.0 0.0 0.00 0.00 0.00 25 1014.0
20260508060013 61 0.0 0.0 0.00 0.00 0.00 25 1014.0
20260508055512 61 0.0 0.0 0.00 0.00 0.00 26 1013.9
20260508055012 61 0.0 0.0 0.00 0.00 0.00 26 1013.8
20260508054012 62 0.0 0.0 0.00 0.00 0.00 32 1013.7
20260508053512 62 0.0 0.0 0.00 0.00 0.00 33 1013.7
20260508053013 63 0.0 0.0 0.00 0.00 0.00 36 1013.7
20260508052512 63 0.0 0.0 0.00 0.00 0.00 36 1013.5
20260508051512 64 0.0 0.0 0.00 0.00 0.00 43 1013.5
20260508051012 64 0.0 0.0 0.00 0.00 0.00 43 1013.5
20260508050513 64 0.0 0.0 0.00 0.00 0.00 42 1013.4
20260508050012 64 0.0 0.0 0.00 0.00 0.00 42 1013.3
20260508045513 64 0.0 0.0 0.00 0.00 0.00 44 1013.2
20260508045012 65 0.0 0.0 0.00 0.00 0.00 45 1013.1
20260508044513 65 0.0 0.0 0.00 0.00 0.00 47 1013.0
20260508043512 66 0.0 0.0 0.00 0.00 0.00 49 1012.9
20260508043012 66 0.0 0.0 0.00 0.00 0.00 50 1012.8
20260508042012 67 0.0 0.0 0.00 0.00 0.00 52 1012.7
20260508041012 68 0.0 0.0 0.00 0.00 0.00 53 1012.5
20260508040513 69 0.0 0.0 0.00 0.00 0.00 52 1012.3
20260508035512 71 0.0 0.0 0.00 0.00 0.00 50 1012.1
20260508035012 72 0.0 0.0 0.00 0.00 0.00 48 1012.1
20260508034512 72 0.0 0.0 0.00 0.00 0.00 47 1012.0
20260508034012 73 0.0 0.0 0.00 0.00 0.00 45 1011.8
20260508032012 76 0.0 0.0 0.00 0.00 0.00 30 1011.3
20260508031512 76 0.0 0.0 0.00 0.00 0.00 30 1011.2
20260508031012 77 0.0 0.0 0.00 0.00 0.00 30 1011.2
20260508030513 77 0.0 0.0 0.00 0.00 0.00 30 1011.1
20260508030012 77 0.0 0.0 0.00 0.00 0.00 30 1011.1
20260508025512 78 0.0 0.0 0.00 0.00 0.00 31 1011.0
20260508024012 79 0.0 0.0 0.00 0.00 0.00 29 1011.0
20260508023512 79 0.0 0.0 0.00 0.00 0.00 29 1010.9
20260508023013 80 0.0 0.0 0.00 0.00 0.00 29 1010.9
20260508022012 80 0.0 0.0 0.00 0.00 0.00 28 1010.9
20260508021011 81 0.0 0.0 0.00 0.00 0.00 27 1010.8
20260508020512 81 0.0 0.0 0.00 0.00 0.00 28 1010.7
20260508020012 81 0.0 0.0 0.00 0.00 0.00 28 1010.7
20260508015012 82 0.0 0.0 0.00 0.00 0.00 27 1010.7
20260508014512 83 0.0 0.0 0.00 0.00 0.00 28 1010.6
20260508014012 83 0.0 0.0 0.00 0.00 0.00 27 1010.6
20260508013512 83 0.0 0.0 0.00 0.00 0.00 27 1010.6
20260508013011 83 0.0 0.0 0.00 0.00 0.00 27 1010.6
20260508012011 84 0.0 0.0 0.00 0.00 0.00 27 1010.6
20260508011511 85 0.0 0.0 0.00 0.00 0.00 27 1010.7
20260508011011 85 0.0 0.0 0.00 0.00 0.00 28 1010.7
20260508010511 85 0.0 0.0 0.00 0.00 0.00 28 1010.7
20260508010012 85 0.0 0.0 0.00 0.00 0.00 29 1010.8
20260508005512 85 0.0 0.0 0.00 0.00 0.00 28 1010.9
20260508005012 85 0.0 0.0 0.00 0.00 0.00 28 1011.0
20260508004511 85 0.0 0.0 0.00 0.00 0.00 27 1010.9
20260508004011 85 0.0 0.0 0.00 0.00 0.00 29 1011.0
20260508003512 85 0.0 0.0 0.00 0.00 0.00 29 1010.9
20260508003012 85 0.0 0.0 0.00 0.00 0.00 29 1011.0
20260508002512 85 0.0 0.0 0.00 0.00 0.00 28 1010.9
20260508002012 85 0.0 0.0 0.00 0.00 0.00 27 1011.0
20260508001512 85 0.0 0.0 0.00 0.00 0.00 28 1011.0
20260508000512 86 0.0 0.0 0.00 0.00 0.00 28 1011.0
20260508000012 86 0.0 0.0 0.00 0.00 0.00 28 1011.1
20260507235512 86 0.0 0.0 0.00 0.00 0.00 28 1011.0
20260507235012 86 0.0 0.0 0.00 0.00 0.00 30 1011.0
20260507234512 86 0.0 0.0 0.00 0.00 0.00 30 1011.1
20260507234012 85 0.0 0.0 0.00 0.00 0.00 30 1011.0
20260507233511 85 0.0 0.0 0.00 0.00 0.00 28 1011.1
20260507233012 85 0.0 0.0 0.00 0.00 0.00 29 1011.1
20260507232511 85 0.0 0.0 0.00 0.00 0.00 29 1011.2
20260507232012 84 0.0 0.0 0.00 0.00 0.00 31 1011.3
20260507231511 85 0.0 0.0 0.00 0.00 0.00 28 1011.4
20260507231012 85 0.0 0.0 0.00 0.00 0.00 28 1011.3
20260507230512 85 0.0 0.0 0.00 0.00 0.00 30 1011.3
20260507230013 85 0.0 0.0 0.00 0.00 0.00 26 1011.4
20260507225512 85 0.0 0.0 0.00 0.00 0.00 26 1011.4
20260507224512 86 0.0 0.0 0.00 0.00 0.00 24 1011.5
20260507224012 86 0.0 0.0 0.00 0.00 0.00 27 1011.6
20260507223512 86 0.0 0.0 0.00 0.00 0.00 23 1011.6
20260507223013 85 0.0 0.0 0.00 0.00 0.00 24 1011.7
20260507222511 85 0.0 0.0 0.00 0.00 0.00 23 1011.8
20260507222012 84 0.0 0.0 0.00 0.00 0.00 22 1011.8
20260507221512 84 0.0 0.0 0.00 0.00 0.00 21 1011.9
20260507221012 84 0.0 0.0 0.00 0.00 0.00 21 1012.0
20260507220511 84 0.0 0.0 0.00 0.00 0.00 20 1012.0
20260507220011 84 0.0 0.0 0.00 0.00 0.00 21 1012.1
20260507215511 84 0.0 0.0 0.00 0.00 0.00 21 1012.2
20260507214511 84 0.0 0.0 0.00 0.00 0.00 22 1012.3
20260507214012 83 0.0 0.0 0.00 0.00 0.00 23 1012.4
20260507213511 83 0.0 0.0 0.00 0.00 0.00 22 1012.5
20260507213011 83 0.0 0.0 0.00 0.00 0.00 25 1012.6
20260507212511 83 0.0 0.0 0.00 0.00 0.00 24 1012.5
20260507212011 83 0.0 0.0 0.00 0.00 0.00 31 1012.6
20260507211012 82 0.0 0.0 0.00 0.00 0.00 32 1012.6
20260507210512 81 0.0 0.0 0.00 0.00 0.00 31 1012.8
20260507205512 80 0.0 0.0 0.00 0.00 0.00 35 1012.8
20260507204513 80 0.0 0.0 0.00 0.00 0.00 30 1012.9
20260507204011 80 0.0 0.0 0.00 0.00 0.00 33 1013.0
20260507203511 80 0.0 0.0 0.00 0.00 0.00 33 1013.1
20260507202511 80 0.0 0.0 0.00 0.00 0.00 36 1013.2
20260507201512 79 0.0 0.0 0.00 0.00 0.00 40 1013.3
20260507201012 79 0.0 0.0 0.00 0.00 0.00 40 1013.4
20260507200512 79 0.0 0.0 0.00 0.00 0.00 41 1013.5
20260507195511 78 0.0 0.0 0.00 0.00 0.00 43 1013.6
20260507195011 78 0.0 0.0 0.00 0.00 0.00 45 1013.7
20260507194511 78 0.0 0.0 0.00 0.00 0.00 44 1013.8
20260507194012 78 0.0 0.0 0.00 0.00 0.00 47 1013.9
20260507193512 77 0.0 0.0 0.00 0.00 0.00 43 1014.0
20260507193011 77 0.0 0.0 0.00 0.00 0.00 45 1014.1
20260507192511 76 0.0 0.0 0.00 0.00 0.00 50 1014.2
20260507191511 75 0.0 0.0 0.00 0.00 0.00 50 1014.4
20260507191011 75 0.0 0.0 0.00 0.00 0.00 49 1014.5
20260507190511 74 0.0 0.0 0.00 0.00 0.00 52 1014.6
20260507190011 74 0.0 0.0 0.00 0.00 0.00 51 1014.6
20260507185511 73 0.0 0.0 0.00 0.00 0.00 52 1014.8
20260507185011 73 0.0 0.0 0.00 0.00 0.00 51 1014.8
20260507184511 72 0.0 0.0 0.00 0.00 0.00 49 1014.8
20260507184011 71 0.0 0.0 0.00 0.00 0.00 49 1015.0
20260507183511 71 0.0 0.0 0.00 0.00 0.00 48 1015.0
20260507183011 70 0.0 0.0 0.00 0.00 0.00 51 1015.0
20260507182511 70 0.0 0.0 0.00 0.00 0.00 50 1015.1
20260507182011 70 0.0 0.0 0.00 0.00 0.00 51 1015.2
20260507181511 69 0.0 0.0 0.00 0.00 0.00 52 1015.2
20260507181012 69 0.0 0.0 0.00 0.00 0.00 47 1015.3
20260507180511 69 0.0 0.0 0.00 0.00 0.00 42 1015.4
20260507175511 67 0.0 0.0 0.00 0.00 0.00 44 1015.5
20260507175011 67 0.0 0.0 0.00 0.00 0.00 42 1015.5
20260507174511 67 0.0 0.0 0.00 0.00 0.00 33 1015.6
20260507174011 66 0.0 0.0 0.00 0.00 0.00 30 1015.7
20260507173511 66 0.0 0.0 0.00 0.00 0.00 28 1015.7
20260507173011 65 0.0 0.0 0.00 0.00 0.00 14 1015.8
20260507172512 64 0.0 0.0 0.00 0.00 0.00 19 1015.8
20260507171512 63 0.0 0.0 0.00 0.00 0.00 8 1015.9
20260507171011 62 0.0 0.0 0.00 0.00 0.00 1 1016.0
20260507170511 62 0.0 0.0 0.00 0.00 0.00 1 1015.9
20260507170012 61 0.0 0.0 0.00 0.00 0.00 1 1016.0
20260507165511 60 0.0 0.0 0.00 0.00 0.00 1 1016.2
20260507165010 60 0.0 0.0 0.00 0.00 0.00 1 1016.2
20260507164511 59 0.0 0.0 0.00 0.00 0.00 1 1016.2
20260507163512 58 0.0 0.0 0.00 0.00 0.00 1 1016.3
20260507163011 58 0.0 0.0 0.00 0.00 0.00 1 1016.4
20260507162512 57 0.0 0.0 0.00 0.00 0.00 1 1016.5
20260507162011 56 0.0 0.0 0.00 0.00 0.00 1 1016.5
20260507161011 55 0.0 0.0 0.00 0.00 0.00 1 1016.6
20260507160511 55 0.0 0.0 0.00 0.00 0.00 1 1016.5
20260507160011 54 0.0 0.0 0.00 0.00 0.00 1 1016.7
20260507154512 52 0.0 0.0 0.00 0.00 0.00 1 1016.7
20260507154012 52 0.0 0.0 0.00 0.00 0.00 1 1016.8
20260507153511 51 0.0 0.0 0.00 0.00 0.00 1 1016.8
20260507153012 51 0.0 0.0 0.00 0.00 0.00 1 1016.9
20260507152511 51 0.0 0.0 0.00 0.00 0.00 1 1016.9
20260507152011 50 0.0 0.0 0.00 0.00 0.00 1 1017.0
20260507151511 50 0.0 0.0 0.00 0.00 0.00 1 1017.0
20260507151011 50 0.0 0.0 0.00 0.00 0.00 1 1017.0
20260507150511 49 0.0 0.0 0.00 0.00 0.00 1 1017.0
20260507150011 49 0.0 0.0 0.00 0.00 0.00 1 1017.0
20260507145512 48 0.0 0.0 0.00 0.00 0.00 1 1017.1
20260507145011 48 0.0 0.0 0.00 0.00 0.00 1 1017.2
20260507144511 48 0.0 0.0 0.00 0.00 0.00 1 1017.1
20260507143511 47 0.0 0.0 0.00 0.00 0.00 1 1017.2
20260507143011 47 0.0 0.0 0.00 0.00 0.00 1 1017.1
20260507142512 47 0.0 0.0 0.00 0.00 0.00 1 1017.1
20260507141511 47 0.0 0.0 0.00 0.00 0.00 1 1017.0
20260507141011 47 0.0 0.0 0.00 0.00 0.00 1 1017.0
20260507140511 46 0.0 0.0 0.00 0.00 0.00 1 1017.0
20260507140011 46 0.0 0.0 0.00 0.00 0.00 1 1016.9
20260507135511 46 0.0 0.0 0.00 0.00 0.00 1 1016.9
20260507135011 46 0.0 0.0 0.00 0.00 0.00 1 1016.8
20260507134511 46 0.0 0.0 0.00 0.00 0.00 1 1016.8
20260507134011 46 0.0 0.0 0.00 0.00 0.00 1 1016.8
20260507133511 46 0.0 0.0 0.00 0.00 0.00 1 1016.7
20260507133010 46 0.0 0.0 0.00 0.00 0.00 1 1016.7
20260507132511 46 0.0 0.0 0.00 0.00 0.00 1 1016.7
20260507132011 46 0.0 0.0 0.00 0.00 0.00 1 1016.7
20260507131511 46 0.0 0.0 0.00 0.00 0.00 1 1016.7
20260507131011 46 0.0 0.0 0.00 0.00 0.00 1 1016.6
20260507130512 46 0.0 0.0 0.00 0.00 0.00 1 1016.6
20260507130011 46 0.0 0.0 0.00 0.00 0.00 1 1016.6
20260507125511 46 0.0 0.0 0.00 0.00 0.00 1 1016.6
20260507125011 47 0.0 0.0 0.00 0.00 0.00 1 1016.6
20260507124011 47 0.0 0.0 0.00 0.00 0.00 1 1016.5
20260507123511 47 0.0 0.0 0.00 0.00 0.00 1 1016.5
20260507123011 47 0.0 0.0 0.00 0.00 0.00 1 1016.4
20260507122510 47 0.0 0.0 0.00 0.00 0.00 1 1016.4
20260507122011 47 0.0 0.0 0.00 0.00 0.00 1 1016.4
20260507121510 47 0.0 0.0 0.00 0.00 0.00 1 1016.4
20260507121012 47 0.0 0.0 0.00 0.00 0.00 1 1016.4
20260507120011 47 0.0 0.0 0.00 0.00 0.00 1 1016.4
20260507115511 47 0.0 0.0 0.00 0.00 0.00 1 1016.5
20260507115011 47 0.0 0.0 0.00 0.00 0.00 1 1016.5
20260507114510 47 0.0 0.0 0.00 0.00 0.00 1 1016.5
20260507114010 47 0.0 0.0 0.00 0.00 0.00 1 1016.5
20260507113510 48 0.0 0.0 0.00 0.00 0.00 1 1016.6
20260507113010 48 0.0 0.0 0.00 0.00 0.00 1 1016.6
20260507112510 48 0.0 0.0 0.00 0.00 0.00 1 1016.7
20260507112010 48 0.0 0.0 0.00 0.00 0.00 1 1016.6
20260507110511 48 0.0 0.0 0.00 0.00 0.00 1 1016.7
20260507110011 48 0.0 0.0 0.00 0.00 0.00 1 1016.7
20260507105511 49 0.0 0.0 0.00 0.00 0.00 1 1016.7
20260507104011 49 0.0 0.0 0.00 0.00 0.00 1 1016.6
20260507103511 49 0.0 0.0 0.00 0.00 0.00 1 1016.6
20260507103011 49 0.0 0.0 0.00 0.00 0.00 1 1016.6
20260507102511 49 0.0 0.0 0.00 0.00 0.00 1 1016.6
20260507102010 49 0.0 0.0 0.00 0.00 0.00 1 1016.6
20260507101511 49 0.0 0.0 0.00 0.00 0.00 1 1016.6
20260507101010 50 0.0 0.0 0.00 0.00 0.00 1 1016.6
20260507100511 50 0.0 0.0 0.00 0.00 0.00 1 1016.6
20260507100010 50 0.0 0.0 0.00 0.00 0.00 1 1016.6
20260507095510 50 0.0 0.0 0.00 0.00 0.00 1 1016.7
20260507095010 50 0.0 0.0 0.00 0.00 0.00 1 1016.6
20260507094511 50 0.0 0.0 0.00 0.00 0.00 1 1016.6
20260507094010 51 0.0 0.0 0.00 0.00 0.00 1 1016.7
20260507093510 51 0.0 0.0 0.00 0.00 0.00 1 1016.6
20260507093011 51 0.0 0.0 0.00 0.00 0.00 1 1016.6
20260507092511 51 0.0 0.0 0.00 0.00 0.00 1 1016.6
20260507090512 51 0.0 0.0 0.00 0.00 0.00 1 1016.7
20260507090011 52 0.0 0.0 0.00 0.00 0.00 1 1016.6